Total_Precipitation_Accumulation
0.77 0.71 0.60 0.62 0.57 0.60 0.67 0.71 0.75 0.76 0.80 0.77 0.76 0.79 0.80 0.77 0.70 0.68 0.83 1.01 1.40 1.61 1.45 1.23 1.07 1.03 1.01 0.98 0.99 1.17 1.35 1.51 1.52 1.56 1.66 1.78 1.65 1.48 1.45 1.35 1.36 1.32 1.20
0.71 0.74 0.69 0.70 0.71 0.69 0.69 0.69 0.68 0.79 0.84 0.83 0.82 0.83 0.82 0.72 0.71 0.79 0.94 0.99 1.01 1.23 1.56 1.55 1.39 1.22 1.13 1.02 1.00 1.11 1.26 1.38 1.36 1.45 1.53 1.59 1.51 1.30 1.22 1.32 1.47 1.28 1.06
0.68 0.74 0.77 0.78 0.79 0.80 0.79 0.80 0.81 0.88 0.85 0.88 0.90 0.84 0.80 0.73 0.73 0.80 0.85 0.92 0.75 0.69 1.01 1.42 1.57 1.45 1.39 1.28 1.12 1.14 1.23 1.36 1.30 1.42 1.49 1.53 1.39 1.25 1.13 1.27 1.44 1.31 1.11
0.71 0.80 0.82 0.86 0.92 0.84 0.81 0.88 0.93 0.98 0.95 0.98 1.01 0.88 0.75 0.79 0.77 0.79 0.90 0.92 0.85 0.68 0.71 0.83 1.03 1.20 1.46 1.58 1.38 1.32 1.30 1.29 1.22 1.36 1.46 1.42 1.29 1.22 1.15 1.25 1.28 1.28 1.24
0.89 0.96 1.01 1.04 1.06 1.08 1.00 0.90 0.92 0.99 1.09 1.12 1.03 0.94 0.82 0.82 0.85 0.84 1.01 1.02 0.93 0.82 0.80 0.65 0.63 0.74 0.97 1.32 1.41 1.48 1.42 1.30 1.21 1.27 1.33 1.23 1.23 1.18 1.06 1.12 1.17 1.12 1.15
1.17 1.27 1.25 1.21 1.27 1.36 1.38 1.18 1.22 1.18 1.13 1.20 1.09 1.01 0.98 0.91 0.92 0.98 1.03 1.09 1.11 0.96 0.95 0.78 0.66 0.49 0.58 0.86 1.15 1.49 1.59 1.50 1.32 1.28 1.36 1.17 1.12 1.14 0.97 0.94 1.02 1.06 1.03
1.50 1.67 1.64 1.62 1.63 1.61 1.57 1.51 1.64 1.58 1.32 1.23 1.41 1.38 1.24 1.07 1.03 1.02 1.03 1.15 1.24 1.23 1.23 1.05 0.90 0.69 0.51 0.52 0.67 1.13 1.46 1.65 1.60 1.46 1.56 1.47 1.18 1.07 1.00 0.95 0.97 1.03 1.07
1.73 1.77 1.97 2.08 2.05 2.15 2.12 1.94 2.07 2.07 1.71 1.47 1.68 1.97 1.70 1.49 1.12 1.02 1.07 1.10 1.19 1.33 1.40 1.23 1.02 0.86 0.76 0.69 0.52 0.69 0.98 1.41 1.66 1.56 1.75 1.86 1.43 1.13 0.99 0.96 0.97 1.05 1.18
1.88 1.90 2.01 2.18 2.21 2.27 2.36 2.43 2.37 2.46 2.24 1.86 1.74 2.01 1.88 1.75 1.56 1.17 1.08 1.17 1.31 1.40 1.47 1.46 1.30 1.05 0.97 0.97 0.75 0.59 0.69 0.87 1.33 1.54 1.73 2.04 1.73 1.28 1.02 0.98 0.97 0.97 1.12
2.07 2.14 2.16 2.27 2.30 2.32 2.41 2.51 2.47 2.60 2.64 2.27 2.00 1.79 1.61 1.61 1.72 1.48 1.23 1.20 1.37 1.42 1.44 1.48 1.50 1.33 1.15 1.15 1.00 0.78 0.77 0.81 1.04 1.48 1.76 1.97 1.92 1.53 1.16 1.08 1.10 1.01 1.05
2.18 2.22 2.28 2.44 2.43 2.41 2.38 2.59 2.64 2.72 2.65 2.56 2.41 2.25 2.09 1.84 1.50 1.57 1.58 1.43 1.33 1.26 1.33 1.45 1.60 1.54 1.38 1.31 1.34 1.03 0.80 0.78 0.82 1.30 1.66 1.96 1.95 1.75 1.55 1.43 1.34 1.24 1.07
2.22 2.12 2.03 2.17 2.24 2.27 2.26 2.44 2.61 2.74 2.73 2.75 2.66 2.37 2.30 2.16 1.82 1.75 1.61 1.49 1.48 1.31 1.26 1.32 1.39 1.39 1.40 1.36 1.29 1.27 0.99 0.81 0.76 1.01 1.39 1.63 1.85 1.87 1.83 1.82 1.68 1.57 1.36
2.04 2.09 1.97 1.95 1.98 1.94 1.98 2.10 2.16 2.24 2.39 2.54 2.45 2.24 2.19 2.04 2.02 2.02 1.89 1.65 1.47 1.26 1.27 1.25 1.25 1.23 1.21 1.25 1.33 1.43 1.09 0.84 0.71 0.79 1.06 1.23 1.40 1.64 1.80 1.90 1.90 1.84 1.72
1.73 1.82 1.81 1.76 1.80 1.84 1.85 1.93 1.94 1.95 1.97 2.05 2.05 2.13 2.18 2.05 1.98 1.90 1.91 2.04 1.80 1.55 1.40 1.28 1.27 1.28 1.21 1.19 1.36 1.44 1.11 0.90 0.72 0.66 0.70 0.85 1.06 1.36 1.56 1.74 1.87 1.99 1.95
1.28 1.35 1.45 1.52 1.61 1.66 1.72 1.86 1.93 1.92 1.87 1.85 1.95 2.01 1.96 1.94 1.91 1.81 1.78 1.90 1.96 1.81 1.68 1.51 1.37 1.29 1.30 1.25 1.35 1.19 1.11 1.00 0.81 0.72 0.64 0.60 0.71 0.97 1.11 1.30 1.45 1.50 1.61
0.94 1.00 1.11 1.28 1.50 1.63 1.67 1.74 1.79 1.87 1.90 1.86 1.93 2.03 2.04 2.04 2.07 1.99 1.87 1.83 1.76 1.80 1.72 1.50 1.31 1.21 1.34 1.23 1.35 1.17 1.11 1.23 1.00 0.82 0.74 0.68 0.63 0.67 0.76 0.85 0.99 1.04 1.07
0.78 0.90 0.95 1.09 1.25 1.43 1.61 1.76 1.78 1.78 1.81 1.79 1.73 1.82 1.94 2.03 2.16 2.18 2.16 2.03 1.88 1.84 1.75 1.59 1.38 1.24 1.37 1.43 1.37 1.31 1.21 1.12 1.06 0.97 0.87 0.84 0.77 0.65 0.71 0.75 0.83 0.85 0.85
0.62 0.71 0.85 1.05 1.16 1.25 1.30 1.38 1.46 1.51 1.54 1.58 1.57 1.55 1.62 1.74 1.89 2.04 2.12 2.06 2.05 1.95 1.85 1.81 1.64 1.38 1.28 1.35 1.40 1.47 1.40 1.20 1.13 1.16 1.07 0.98 0.92 0.78 0.71 0.70 0.75 0.75 0.73
0.61 0.66 0.80 0.95 1.01 1.06 1.10 1.12 1.23 1.31 1.32 1.31 1.36 1.33 1.35 1.45 1.59 1.72 1.80 1.88 1.99 2.04 2.03 1.93 1.84 1.65 1.41 1.41 1.45 1.45 1.47 1.57 1.34 1.23 1.22 1.17 1.10 1.02 0.94 0.85 0.80 0.77 0.71
0.62 0.69 0.84 0.94 0.95 0.91 1.00 1.03 1.09 1.13 1.09 1.05 1.08 1.09 1.14 1.18 1.26 1.38 1.52 1.73 1.93 2.04 2.11 2.10 2.00 1.77 1.60 1.57 1.54 1.53 1.59 1.66 1.65 1.44 1.32 1.24 1.28 1.22 1.09 1.02 0.94 0.88 0.83
0.64 0.71 0.76 0.87 0.92 0.90 0.93 0.99 0.98 0.93 0.92 0.92 0.88 0.79 0.81 0.87 0.88 0.97 1.02 1.31 1.56 1.79 1.93 2.00 1.98 1.84 1.63 1.52 1.40 1.44 1.57 1.73 1.82 1.77 1.68 1.41 1.33 1.28 1.22 1.17 1.09 1.00 0.93
0.53 0.58 0.64 0.80 0.91 0.82 0.93 0.93 0.85 0.78 0.75 0.80 0.77 0.70 0.68 0.72 0.63 0.60 0.63 0.85 1.15 1.36 1.55 1.73 1.79 1.68 1.54 1.46 1.50 1.50 1.51 1.57 1.60 1.53 1.53 1.54 1.47 1.36 1.28 1.22 1.23 1.21 1.13
0.47 0.52 0.56 0.73 0.83 0.91 0.85 0.70 0.74 0.74 0.74 0.77 0.79 0.81 0.74 0.69 0.77 0.68 0.62 0.69 0.78 0.89 1.05 1.32 1.54 1.54 1.63 1.55 1.46 1.41 1.43 1.47 1.47 1.53 1.54 1.54 1.45 1.35 1.22 1.17 1.31 1.25 1.25
0.44 0.49 0.55 0.59 0.67 0.80 0.74 0.59 0.64 0.63 0.74 0.81 0.84 0.93 0.94 0.88 0.85 0.93 0.88 0.89 0.85 0.78 0.85 0.77 0.99 1.37 1.51 1.57 1.51 1.54 1.64 1.57 1.45 1.48 1.50 1.52 1.44 1.33 1.18 1.09 1.18 1.11 1.06
0.48 0.50 0.55 0.58 0.64 0.68 0.65 0.57 0.61 0.67 0.80 0.82 0.79 0.90 0.94 0.88 0.92 0.98 1.11 1.17 1.10 0.94 1.05 1.06 0.98 1.09 1.23 1.29 1.40 1.49 1.56 1.49 1.44 1.36 1.26 1.23 1.18 1.21 1.26 1.17 1.13 1.17 1.08
0.47 0.48 0.48 0.48 0.53 0.55 0.60 0.51 0.62 0.73 0.78 0.80 0.81 0.87 1.01 0.93 0.90 0.88 0.97 1.12 1.11 0.98 0.86 0.90 0.87 0.77 0.71 0.82 1.02 1.18 1.46 1.57 1.51 1.40 1.21 1.15 1.17 1.14 1.17 1.11 1.02 1.06 1.05